Printer-friendly version

IAU Minor Planet Center

Minor Planet Center

MPEC 2003-S82 : 2003 SH215

The following Minor Planet Electronic Circular may be linked-to from your own Web pages, but must not otherwise be redistributed electronically.


Read MPEC 2003-S81 Read MPEC 2003-S83


M.P.E.C. 2003-S82                                Issued 2003 Sept. 29, 13:22 UT

     The Minor Planet Electronic Circulars contain information on unusual
         minor planets and routine data on comets.  They are published
   on behalf of Commission 20 of the International Astronomical Union by the
          Minor Planet Center, Smithsonian Astrophysical Observatory,
                          Cambridge, MA 02138, U.S.A.

         Supported in part by the Steven and Michele Kirsch Foundation
             Prepared using the Tamkin Foundation Computer Network

                              MPC@CFA.HARVARD.EDU
          URL http://cfa-www.harvard.edu/iau/mpc.html  ISSN 1523-6714

                                  2003 SH215

Observations:
     K03SL5H*1C2003 09 24.23835522 34 47.820-18 25 23.40         23.8 R      309
     K03SL5H 1C2003 09 24.24052122 34 48.015-18 25 21.50         23.7 R      309
     K03SL5H 1C2003 09 24.24159122 34 48.117-18 25 20.30         23.6 R      309
     K03SL5H 1C2003 09 25.03353522 36 11.610-18 13 22.35         23.6 R      309
     K03SL5H 1C2003 09 25.03479022 36 11.721-18 13 21.25         23.6 R      309
     K03SL5H 1C2003 09 25.03603622 36 11.845-18 13 19.92         23.5 R      309
     K03SL5H 1C2003 09 25.03729122 36 11.961-18 13 18.76         23.7 R      309
     K03SL5H 1C2003 09 25.03854622 36 12.084-18 13 17.61         23.9 R      309
     K03SL5H 1C2003 09 27.08713922 39 42.863-17 41 31.79         23.2 R      309
     K03SL5H 1C2003 09 27.08819422 39 42.960-17 41 30.85         23.5 R      309
     K03SL5H 1C2003 09 27.08927722 39 43.059-17 41 29.93         23.3 R      309
     K03SL5H 1C2003 09 27.09048022 39 43.167-17 41 29.07         23.3 R      309
     K03SL5H 1C2003 09 28.11720422 41 29.358-17 25 09.57         23.9 R      309
     K03SL5H 1C2003 09 28.11839222 41 29.488-17 25 08.78         23.5 R      309
     K03SL5H 1C2003 09 28.11960522 41 29.595-17 25 07.48         23.3 R      309
     K03SL5H 1C2003 09 28.12076022 41 29.707-17 25 06.32         23.2 R      309
     K03SL5H 1C2003 09 29.18717022 43 20.013-17 07 52.87         23.3 R      309
     K03SL5H 1C2003 09 29.18828322 43 20.111-17 07 51.79         23.7 R      309
     K03SL5H 1C2003 09 29.18935422 43 20.228-17 07 50.74         23.5 R      309
     K03SL5H 1C2003 09 29.19045122 43 20.325-17 07 49.72         23.2 R      309

Observer details:
309 Cerro Paranal.  Observer U. Science Operation Support.  Measurers
    A. Boattini, G. D'Abramo, H. Scholl, O. R. Hainaut, G. Forti.  8.2-m f/3
    reflector + CCD.

Orbital elements:
2003 SH215
Epoch 2003 Sept. 18.0 TT = JDT 2452900.5                MPC
M   3.64800              (2000.0)            P               Q
n   0.28777276     Peri.  255.98217     +0.93218682     +0.36022922
a   2.2721462      Node    82.89409     -0.31675490     +0.85929905
e   0.4462520      Incl.    2.05213     -0.17519722     +0.36309787
P   3.42           H   24.9           G   0.15
From 20 observations 2003 Sept. 24-29.

Ephemeris:
2003 SH215               a,e,i = 2.27, 0.45, 2                   q = 1.2582
Date    TT    R. A. (2000) Decl.     Delta      r     Elong.  Phase     V
2003 09 28    22 41.28   -17 27.1    0.310    1.279   149.7    23.3    24.0
2003 10 08    22 58.85   -14 37.8    0.349    1.301   145.3    25.9    24.4
2003 10 18    23 16.62   -11 38.1    0.399    1.330   140.9    28.2    24.8
2003 10 28    23 34.41   -08 37.0    0.462    1.366   136.3    30.2    25.2

Timothy B. Spahr             (C) Copyright 2003 MPC           M.P.E.C. 2003-S82

Read MPEC 2003-S81 Read MPEC 2003-S83


Our Web policy. Index to the CBAT/MPC/ICQ pages.


Valid HTML 4.01!